OneWeb SL0270

operational
NORAD ID: 48988 Int'l Des: 2021-060 Owner: ONEWEBN Country: UK Constellation: oneweb
LEOCIRCULARPOLARONEWEB_TYPE

Über OneWeb SL0270

Beschreibung wird geladen...

Live-Position

3D-Globus wird geladen...

Nächste Überflüge

Höhenverlauf

Altitude vs Time

uPlot chart will show altitude changes over time

Zweizeiliger Elementsatz

1 48988U 21060X 25352.23473956 -.00000230 00000-0 -63563-3 0 9995
2 48988 87.9049 264.8133 0001837 61.5149 298.6167 13.16593502215853
Epoch: 18. Dez. 2025 • Age: 7 hours

Aktueller Status

Höhe 1220.9 km
Geschwindigkeit 7.24 km/s
Subsatellitenpunkt -57.82°S, 15.49°W
Startdatum 1. Juli 2021
Alter 4.4 years
Typ internet

Technische Details

Klassifizierung Payload
Masse 148.00 kg
Trockenmasse 140.00 kg
Gesamtmasse 148.00 kg
Länge 1.30 m
Durchmesser 1.00 m
Spannweite 5.00 m
Form Trapezoid+2 pan
Hersteller ONEWUS
Bus-Typ ARROW
Phasenstatus In Orbit
Besitzer/Staat ONEWEBN/UK

Große Konstellationen

Loading constellations...